Probability
3 3 3 3 2 2 2 1 0 0 0 0 0 0 0 0 0 0 0 0 0 0 0 0 0 0 0 0 0 0 0 0 0 0 0 0 0 0 0 0 0 0 0
3 3 2 2 1 1 1 0 0 0 0 0 0 0 0 0 0 0 0 0 0 0 0 0 0 0 0 0 0 0 0 0 0 0 0 0 0 0 0 0 0 0 0
2 1 1 1 0 0 0 0 0 0 0 0 0 0 0 0 0 0 0 0 0 0 0 0 0 0 0 0 0 0 0 0 0 0 0 0 0 0 0 0 0 0 0
1 0 0 0 0 0 0 0 0 0 0 0 0 0 0 0 0 0 0 0 0 0 0 0 0 0 0 0 0 0 0 0 0 0 0 0 0 0 0 0 0 0 0
0 0 0 0 0 0 0 0 0 0 0 0 0 0 0 0 0 0 0 0 0 0 0 0 0 0 0 0 0 0 0 0 0 0 0 0 0 0 0 0 0 0 0
0 0 0 0 0 0 0 0 0 0 0 0 0 0 0 0 0 0 0 0 0 0 0 0 0 0 0 0 0 0 0 0 0 0 0 0 0 0 0 0 0 0 0
0 0 0 0 0 0 0 0 0 0 0 0 0 0 0 0 0 0 0 0 0 0 0 0 0 0 0 0 0 0 0 0 0 0 0 0 0 0 0 0 0 0 0
0 0 0 0 0 0 0 0 0 0 0 0 0 0 0 0 0 0 0 0 0 0 0 0 0 0 0 0 0 0 0 0 0 0 0 0 0 0 0 0 0 0 0
0 0 0 0 0 0 0 0 0 0 0 0 0 0 0 0 0 0 0 0 0 0 0 0 0 0 0 0 0 0 0 0 0 0 0 0 0 0 0 0 0 0 0
0 0 0 0 0 0 0 0 0 0 0 0 0 0 0 0 0 0 0 0 0 0 0 0 0 0 0 0 0 0 0 0 0 0 0 0 0 0 0 0 0 0 0
0 0 0 0 0 0 0 0 0 0 0 0 0 0 0 0 0 0 0 0 0 0 0 0 0 0 0 0 0 0 0 0 0 0 0 0 0 0 0 0 0 0 0
0 0 0 0 0 0 0 0 0 0 0 0 0 0 0 0 0 0 0 0 0 0 0 0 0 0 0 0 0 0 0 0 0 0 0 0 0 0 0 0 0 0 0
0 0 0 0 0 0 0 0 0 0 0 0 0 0 0 0 0 0 0 0 0 0 0 0 0 0 0 0 0 0 0 0 0 0 0 0 0 0 0 0 0 0 0
0 0 0 0 0 0 0 0 0 0 0 0 0 0 0 0 0 0 0 0 0 0 0 0 0 0 0 0 0 0 0 0 0 0 0 0 0 0 0 0 0 0 0
0 0 0 0 0 0 0 0 0 0 0 0 0 0 0 0 0 0 0 0 0 0 0 0 0 0 0 0 0 0 0 0 0 0 0 0 0 0 0 0 0 0 0
0 0 0 0 0 0 0 0 0 0 0 0 0 0 0 0 0 0 0 0 0 0 0 0 0 0 0 0 0 0 0 0 0 0 0 0 0 0 0 0 0 0 0
0 0 0 0 0 0 0 0 0 0 0 0 0 0 0 0 0 0 0 0 0 0 0 0 0 0 0 0 0 0 0 0 0 0 0 0 0 0 0 0 0 0 0
0 0 0 0 0 0 0 0 0 0 0 0 0 0 0 0 0 0 0 0 0 0 0 0 0 0 0 0 0 0 0 0 0 0 0 0 0 0 0 0 0 0 0
0 0 0 0 0 0 0 0 0 0 0 0 0 0 0 0 0 0 0 0 0 0 0 0 0 0 0 0 0 0 0 0 0 0 0 0 0 0 0 0 0 0 0
0 0 0 0 0 0 0 0 0 0 0 0 0 0 0 0 0 0 0 0 0 0 0 0 0 0 0 0 0 0 0 0 0 0 0 0 0 0 0 0 0 0 0
0 0 0 0 0 0 0 0 0 0 0 0 0 0 0 0 0 0 0 0 0 0 0 0 0 0 0 0 0 0 0 0 0 0 0 0 0 0 0 0 0 0 0
0 0 0 0 0 0 0 0 0 0 0 0 0 0 0 0 0 0 0 0 0 0 0 0 0 0 0 0 0 0 0 0 0 0 0 0 0 0 0 0 0 0 0
0 0 0 0 0 0 0 0 0 0 0 0 0 0 0 0 0 0 0 0 0 0 0 0 0 0 0 0 0 0 0 0 0 0 0 0 0 0 0 0 0 0 0
0 0 0 0 0 0 0 0 0 0 0 0 0 0 0 0 0 0 0 0 0 0 0 0 0 0 0 0 0 0 0 0 0 0 0 0 0 0 0 0 0 0 0
0 0 0 0 0 0 0 0 0 0 0 0 0 0 0 0 0 0 0 0 0 0 0 0 0 0 0 0 0 0 0 0 0 0 0 0 0 0 0 0 0 0 0
0 0 0 0 0 0 0 0 0 0 0 0 0 0 0 0 0 0 0 0 0 0 0 0 0 0 0 0 0 0 0 0 0 0 0 0 0 0 0 0 0 0 0
Wind_Speed
10 10 11 9 9 10 10 9 8 8 8 8 7 7 7 7 6 6 7 6 6 6 5 6 6 5 4 4 3 3 4 4 3 3 3 3 3 1 1 2 4 4 5
10 10 10 9 9 9 9 8 7 7 7 7 6 6 7 6 5 6 7 6 6 6 5 5 5 5 5 5 4 4 3 3 3 2 1 2 2 2 2 3 4 1 2
10 10 9 9 9 9 8 7 7 7 7 6 6 6 6 6 6 6 6 6 6 5 5 5 5 6 6 4 4 4 3 3 2 1 1 0 0 1 1 3 3 1 3
9 9 9 8 7 7 7 7 7 6 6 6 6 6 6 7 7 6 5 5 5 5 5 6 6 7 6 5 4 5 4 4 3 2 1 1 1 2 1 2 2 2 2
9 9 8 7 7 7 6 6 5 5 6 5 5 6 7 7 8 7 4 5 4 4 5 5 6 6 6 4 5 4 5 4 4 3 3 3 3 3 3 3 3 3 3
8 8 7 6 7 7 6 5 5 5 5 5 6 7 8 7 9 11 8 4 3 3 4 4 5 4 3 1 1 2 3 3 4 3 3 3 3 3 3 4 3 3 3
7 7 6 6 6 6 6 5 4 4 4 5 6 7 8 7 10 11 11 5 2 3 3 3 4 6 5 4 2 3 3 4 3 1 3 3 3 3 4 4 4 4 4
7 6 6 5 5 5 5 5 4 4 4 4 6 6 6 7 9 10 12 4 1 2 3 4 5 6 7 6 5 4 2 1 3 3 2 3 3 2 3 4 5 5 4
6 5 5 4 4 4 5 4 4 3 3 4 5 6 6 5 7 9 10 4 1 3 5 6 6 6 6 8 5 5 5 4 2 3 5 6 7 7 3 2 4 3 4
5 5 5 4 4 5 4 3 3 3 3 4 5 5 6 5 5 8 9 4 2 3 5 6 8 6 5 7 5 4 4 5 6 6 5 7 6 6 6 5 3 3 3
5 5 5 5 5 4 3 2 2 3 3 4 5 5 5 5 3 5 8 5 5 3 2 3 3 3 3 4 4 2 3 5 6 6 5 3 2 1 2 3 4 2 2
5 5 4 3 4 5 3 2 3 2 3 3 4 4 4 4 3 3 4 5 5 4 3 3 2 0 2 4 4 5 8 8 4 3 3 2 2 2 2 2 3 3 4
4 4 3 4 4 3 2 2 2 1 2 2 3 3 3 3 2 1 2 3 4 3 2 2 2 4 5 5 6 8 7 4 3 3 3 3 2 2 2 2 3 3 4
4 4 3 3 3 3 2 3 4 4 3 3 3 3 3 4 3 2 2 1 1 1 2 3 5 7 7 7 5 4 4 2 2 3 3 3 3 3 2 2 2 3 3
4 3 3 3 4 4 6 6 6 6 6 5 5 4 4 5 3 4 4 4 5 5 6 4 2 1 1 1 1 1 1 1 2 3 3 3 3 3 3 3 3 3 3
3 3 3 3 3 3 5 6 9 7 7 9 8 6 5 5 2 2 4 5 6 7 5 3 2 2 2 2 2 2 2 3 3 3 3 3 3 3 3 3 3 3 3
3 2 2 3 2 2 3 4 5 4 4 4 5 5 4 2 1 2 5 8 9 6 4 3 1 2 2 3 3 3 3 3 2 3 3 3 3 3 4 4 3 3 3
3 3 1 2 2 2 2 2 3 4 4 3 2 2 2 2 3 4 5 6 6 4 2 1 2 2 2 2 3 3 3 3 3 3 3 3 3 3 4 4 3 3 3
2 2 2 1 1 2 2 2 3 3 3 4 5 4 5 5 6 8 5 4 4 2 2 2 2 2 2 3 2 2 2 2 2 3 3 3 3 4 4 4 4 5 4
2 2 1 1 1 2 2 2 2 3 3 3 3 3 4 5 4 4 4 3 2 2 2 3 2 1 2 2 3 3 3 3 3 3 3 4 4 4 4 5 5 4 4
3 4 4 3 2 2 2 2 2 2 3 2 3 3 1 2 1 1 0 0 1 2 3 3 3 2 3 3 4 4 4 4 4 5 5 5 5 5 4 4 5 4 4
2 4 4 2 2 2 1 2 2 2 3 3 4 5 3 3 1 0 1 1 1 2 2 2 3 4 4 4 4 4 4 5 6 6 6 6 6 5 5 5 5 4 4
3 3 3 3 3 3 3 3 3 2 2 2 2 3 4 1 1 1 1 1 1 1 1 1 2 4 4 3 3 5 6 5 5 5 6 6 7 7 6 5 6 5 4
3 3 3 4 4 4 3 3 3 2 2 2 1 1 2 2 1 1 0 1 1 1 2 2 2 3 4 3 3 6 5 4 5 5 7 7 8 7 6 6 6 5 4
4 3 3 4 4 4 3 3 3 2 2 2 1 1 2 2 2 2 2 1 1 2 1 1 2 3 3 5 6 5 3 3 3 5 6 7 9 9 7 7 6 5 4
4 3 2 2 3 3 3 3 2 2 2 2 2 2 1 1 2 2 2 1 0 1 2 2 3 3 3 5 6 4 2 3 5 5 6 6 8 7 6 6 8 6 5
Wind_Direction
74 76 78 76 78 80 80 79 78 75 72 71 69 67 66 65 65 71 78 74 75 71 70 68 59 44 29 29 30 40 37 44 69 83 97 126 143 175 204 274 267 224 198
85 82 81 81 80 82 82 82 83 81 78 74 73 72 72 68 63 69 79 76 74 72 68 66 62 58 44 33 25 43 48 45 53 63 74 147 177 192 213 256 272 270 189
87 88 85 84 85 85 85 84 82 79 75 71 70 71 70 66 61 62 69 73 73 72 71 69 64 57 46 32 32 31 22 39 34 29 16 64 192 154 256 281 293 285 282
88 89 89 87 87 89 89 86 84 84 83 79 75 73 72 63 53 49 67 74 75 75 73 69 63 57 41 11 38 29 21 11 3 353 1 26 34 2 359 327 328 333 312
93 91 90 91 90 89 87 87 89 91 92 88 83 74 72 62 41 29 39 84 83 85 85 86 83 82 67 35 42 25 16 9 9 10 21 28 26 14 7 340 348 325 313
104 102 102 99 95 91 89 85 84 81 85 87 82 75 67 57 37 31 28 29 57 76 84 98 125 121 121 121 46 16 11 19 20 5 18 18 13 13 356 341 351 346 331
105 105 103 99 99 103 107 102 98 93 90 93 92 88 81 53 33 24 15 354 38 66 65 49 80 82 51 30 349 254 249 236 235 329 355 352 350 15 356 340 339 328 300
100 98 98 105 107 107 105 103 97 94 93 95 100 98 91 60 32 18 356 334 56 92 85 79 77 68 40 13 342 350 354 194 215 221 292 318 343 355 331 311 304 308 299
101 104 104 99 99 102 101 106 108 113 114 111 111 110 100 75 34 19 1 326 66 81 78 62 73 79 39 10 357 7 18 12 349 300 283 283 286 281 273 307 317 333 326
110 111 108 106 101 97 100 110 121 130 122 116 113 109 107 94 47 25 5 352 46 72 97 93 70 66 41 18 7 12 12 353 337 319 293 273 262 258 233 221 267 310 322
109 110 112 109 108 100 93 93 108 104 97 100 108 109 105 104 86 38 27 22 16 33 85 94 84 58 32 7 350 345 336 312 301 292 287 286 277 270 222 217 231 252 295
108 104 99 101 103 102 101 95 92 105 114 117 124 122 121 122 92 71 37 34 10 23 53 77 103 314 322 316 314 314 321 318 296 307 329 345 350 338 306 284 260 253 246
103 100 95 86 82 96 111 122 129 131 115 117 116 119 127 125 115 77 332 344 359 4 21 352 283 265 288 279 261 283 305 308 326 337 339 339 334 316 302 298 292 276 270
111 112 113 107 101 83 58 58 60 49 51 70 83 97 104 92 67 34 354 344 325 347 325 286 263 262 263 281 284 258 254 277 322 316 324 327 322 320 312 306 308 306 298
124 121 113 107 99 84 71 50 62 54 49 48 43 60 72 77 54 27 15 17 9 12 334 301 275 289 287 280 315 311 298 357 5 346 337 331 329 331 325 321 312 312 323
129 127 121 120 118 124 121 97 62 83 82 74 63 62 78 88 110 31 10 348 340 346 334 311 345 358 351 354 348 349 11 39 10 331 326 332 332 330 322 318 318 322 320
122 116 123 120 116 115 126 135 133 110 79 75 72 70 81 111 45 337 335 330 313 313 297 292 5 13 358 356 2 7 7 10 344 321 330 336 334 328 322 321 324 327 325
134 121 128 127 135 139 132 136 144 151 157 158 168 192 208 253 279 291 312 319 289 250 254 339 30 24 11 7 7 7 353 344 346 340 334 335 334 324 319 322 323 330 320
144 128 126 117 150 135 129 138 135 140 152 153 153 176 219 241 266 272 282 276 298 8 21 21 27 25 20 1 348 347 341 330 341 328 322 333 330 323 324 328 324 323 313
125 103 146 183 169 146 135 131 130 138 139 139 151 163 179 208 227 230 220 252 324 22 23 9 2 20 34 350 349 3 358 350 352 350 353 348 334 327 327 324 319 318 316
168 161 195 218 190 148 141 136 135 136 138 142 118 106 127 260 237 190 151 78 30 38 51 356 334 26 36 14 17 4 359 6 16 10 357 343 333 326 317 312 312 317 321
193 175 189 182 146 136 142 154 147 152 154 146 143 162 199 244 242 123 82 68 58 54 61 14 359 36 37 17 5 355 16 26 19 6 345 332 326 324 322 320 321 319 321
227 190 165 151 142 147 210 189 156 158 147 135 147 157 170 195 89 79 80 86 80 79 67 49 34 47 39 17 9 39 36 23 359 342 331 326 325 320 317 318 319 325 336
230 207 179 163 171 181 181 159 161 164 146 136 140 140 135 148 156 126 125 104 84 76 78 70 64 64 57 36 46 64 48 16 343 330 331 317 309 307 314 315 317 330 337
236 216 196 178 170 165 161 169 168 163 161 157 166 171 160 170 175 167 149 140 165 134 114 107 86 69 58 62 67 65 50 7 347 330 313 303 304 308 314 317 320 325 341
229 225 209 170 147 151 163 173 172 175 180 180 171 172 196 200 179 156 148 147 213 141 137 128 123 115 103 92 87 84 48 351 335 320 304 293 295 302 317 321 328 335 350